Regional Weather Roundup
Issued by NWS Newport/Morehead, NC

Current Version | Previous Version | Graphics & Text | Print | Product List | Glossary Off
Versions: 1 2 3 4 5 6 7 8 9 10 11 12 13 14 15 16 17 18 19 20 21 22 23 24 25 26 27 28 29 30 31 32 33 34 35 36 37 38 39 40 41 42 43 44 45 46 47 48 49 50

489
ASUS42 KMHX 160814
RWRMHX
WEATHER ROUNDUP FOR EASTERN NORTH CAROLINA
NATIONAL WEATHER SERVICE NEWPORT/MOREHEAD CITY NC
400 AM EDT WED AUG 16 2017

NOTE: "FAIR" INDICATES FEW OR NO CLOUDS BELOW 12,000 FEET
WITH NO SIGNIFICANT WEATHER AND/OR OBSTRUCTIONS TO VISIBILITY

NCZ015>017-031-032-045>047-102-103-160900-
NORTH COAST

CITY           SKY/WX    TMP DP  RH WIND       PRES   REMARKS
EDENTON        CLOUDY    77  76  94 CALM      29.91R
ELIZABETH CITY CLOUDY    76  76 100 N9        29.90R
KITTY HAWK     SUNNY     75  75 100 CALM      29.88S
MANTEO         CLEAR     76  75  96 CALM      29.89S

$$

NCZ045>047-081-094-103-104-160900-
CENTRAL COAST

CITY           SKY/WX    TMP DP  RH WIND       PRES   REMARKS
FRISCO         CLOUDY    79  77  94 W5        29.88R

$$

NCZ095-097-098-100-101-160900-
SOUTHERN COAST

CITY           SKY/WX    TMP DP  RH WIND       PRES   REMARKS
BEAUFORT       CLOUDY    78  78 100 CALM      29.90R
CEDAR ISLAND   NOT AVBL
JACKSONVILLE   LGT RAIN  76  76 100 W3        29.90R
PINEY ISLAND   MOSUNNY  N/A N/A N/A CALM      29.89R
WILMINGTON     CLEAR     77  76  96 S3        29.89F


$$

NCZ011>013-027>030-043-044-078>080-089-090>093-098-160900-
COASTAL PLAIN

CITY           SKY/WX    TMP DP  RH WIND       PRES   REMARKS
AHOSKIE        FOG       74  74  99 CALM      29.92R VSB 3/4
CLINTON        CLEAR     75  75 100 CALM      29.93R
ELIZABETHTOWN  NOT AVBL
GOLDSBORO      FOG       75  73  93 VRB2      29.93R VSB 3/4
GREENVILLE     CLEAR     73  73 100 CALM      29.93S
HAVELOCK       CLOUDY    78  76  93 W3        29.90R
KENANSVILLE    FOG       75  75 100 N3        29.92R VSB 3/4
KINSTON        FOG       74  74  99 CALM      29.92S VSB 3/4
NEW BERN       CLEAR     76  76 100 CALM      29.91R FOG
RICHLANDS      FOG       75  75 100 CALM      29.91S VSB 1/2
ROCKY MOUNT    PTCLDY    73  73 100 CALM      29.93R
WASHINGTON     CLEAR     75  74  97 CALM      29.90S
WHITEVILLE     CLOUDY    78  77  96 CALM      29.90S

$$

AMZ130-135-150-152-154-156-158-170-250-252-270-ANZ085-086-088-633-658-670-160900-
MARINE OBSERVATIONS

STATION/POSITION TIME  TEMP    WIND        PRES    WAVE   SWELL
                       AIR SEA DIR/SP/G            HT/PER HT/PER
                 (UTC) (F)     (DEG/KT/KT) (MB)    (FT/S) (FT/S)
CHESAPEAKE LIGHT NOT AVBL
64 E VA BEACH    0750   77 79   30/  6/  6 1012.5    5/11   5/11
DUCK             0742   78 75  360/  7/  8 1011.9
2 E DUCK         0800      79                N/A     3/ 6   2/11
OREGON INLET     0742   80 82  270/  3/  6 1011.8
13E OREGON INLT  0748      79                N/A     4/11   3/11
HATTERAS CG      0742   78 83  240/  5/  8 1011.8
DIAMOND BUOY     0750   81 83  240/ 12/ 14 1011.3    3/ 8   3/ 8
CAPE LOOKOUT     0800   80     150/  3/  3 1012.1
BEAUFORT LAB     0742   80 81  150/  1/  3 1011.8
30 SE NEW RVR IN 0708   80 83  320/ 10/ 12 1012.2
30 SE NEW RVR IN 0743      83                N/A     3/ 5
27 SE WRIGHTSVLE 0708   83 83  230/  6/ 10 1012.3
5 SE WRIGHTSVLE  0708   81 83  350/  4/  8 1012.5
225 S CAPE HAT   0750   84 83  250/ 16/ 19 1014.1    5/ 6   2/ 8
41 SE CHARLESTON 0800   84 83  240/ 10/ 12 1013.0

$$




USA.gov is the U.S. government's official web portal to all federal, state and local government web resources and services.